GW3397 Weather Reports


Display with metric or nautical units.
time (UTC)temp
F
wind
direction
speed
MPH
gust
MPH
rain 1hr
in
rain 24hr
in
rain mn
in
humidity
%
barometer
mb
20260507015029 45 319 2.0 3.0 0.00 0.34 0.34 94 1014.1
20260507014526 46 290 5.0 8.0 0.00 0.34 0.34 94 1014.1
20260507014022 46 313 3.0 3.0 0.00 0.34 0.34 94 1013.9
20260507013518 46 303 4.0 5.0 0.00 0.34 0.34 94 1014.0
20260507013016 46 280 3.0 6.0 0.00 0.34 0.34 94 1014.0
20260507012513 46 284 5.0 6.0 0.00 0.34 0.34 94 1014.1
20260507012009 46 291 5.0 6.0 0.00 0.34 0.34 94 1014.0
20260507011506 46 296 2.0 5.0 0.00 0.34 0.34 95 1014.1
20260507011002 46 265 6.0 7.0 0.00 0.34 0.34 95 1014.0
20260507010457 46 294 4.0 5.0 0.00 0.34 0.34 95 1013.6
20260507005954 46 302 3.0 3.0 0.00 0.34 0.34 95 1013.4
20260507005451 46 300 1.0 1.0 0.00 0.34 0.34 95 1013.3
20260507004947 46 304 4.0 5.0 0.00 0.34 0.34 95 1013.5
20260507004443 46 312 3.0 3.0 0.00 0.34 0.34 95 1013.3
20260507003941 46 264 4.0 6.0 0.00 0.34 0.34 95 1013.2
20260507003436 46 313 3.0 3.0 0.00 0.34 0.34 96 1013.1
20260507002931 46 296 4.0 7.0 0.00 0.34 0.34 96 1013.0
20260507002428 46 322 3.0 9.0 0.00 0.34 0.34 96 1013.3
20260507001925 46 285 4.0 10.0 0.00 0.34 0.34 96 1013.0
20260507001422 46 321 4.0 10.0 0.00 0.34 0.34 96 1013.1
20260507000920 46 305 7.0 11.0 0.00 0.34 0.34 96 1013.0
20260507000414 46 311 4.0 9.0 0.00 0.34 0.34 96 1013.0
20260506235910 46 303 5.0 9.0 0.00 0.34 0.34 96 1012.9
20260506235408 46 306 3.0 8.0 0.00 0.34 0.34 96 1012.8
20260506234903 46 294 6.0 8.0 0.00 0.34 0.34 96 1012.6
20260506234402 46 317 3.0 9.0 0.00 0.34 0.34 96 1012.5
20260506233859 46 276 7.0 13.0 0.00 0.34 0.34 96 1012.3
20260506233354 47 299 6.0 8.0 0.00 0.34 0.34 96 1012.3
20260506232852 47 274 7.0 13.0 0.00 0.34 0.34 96 1012.4
20260506232347 47 301 7.0 10.0 0.00 0.34 0.34 96 1012.1
20260506231839 47 319 11.0 13.0 0.00 0.34 0.34 96 1012.3
20260506231337 47 322 11.0 13.0 0.00 0.34 0.34 96 1012.1
20260506230834 47 276 9.0 10.0 0.00 0.34 0.34 96 1011.9
20260506230331 47 238 8.0 9.0 0.00 0.34 0.34 96 1011.9
20260506225827 47 305 7.0 8.0 0.00 0.34 0.34 96 1011.9
20260506225324 47 299 7.0 13.0 0.00 0.34 0.34 96 1011.8
20260506224821 47 307 7.0 9.0 0.00 0.34 0.34 96 1011.9
20260506224319 47 293 6.0 10.0 0.00 0.34 0.34 96 1011.8
20260506223814 47 267 6.0 10.0 0.00 0.34 0.34 96 1011.7
20260506223309 47 0 7.0 14.0 0.00 0.34 0.34 96 1011.6
20260506222806 47 286 7.0 9.0 0.00 0.34 0.34 96 1012.0
20260506222305 48 250 6.0 10.0 0.05 0.34 0.34 96 1011.7
20260506221754 48 285 8.0 14.0 0.05 0.34 0.34 96 1011.6
20260506221252 48 290 9.0 13.0 0.00 0.33 0.33 96 1011.6
20260506220749 48 333 11.0 13.0 0.00 0.33 0.33 96 1011.4
20260506220244 48 298 5.0 10.0 0.00 0.33 0.33 96 1011.4
20260506215741 48 294 5.0 10.0 0.00 0.33 0.33 96 1011.2
20260506215236 47 308 5.0 10.0 0.00 0.33 0.33 97 1011.1
20260506214733 47 278 3.0 8.0 0.00 0.33 0.33 97 1011.0
20260506214230 47 318 4.0 9.0 0.00 0.33 0.33 97 1011.0
20260506213728 47 300 6.0 9.0 0.00 0.33 0.33 97 1010.8
20260506213225 47 311 11.0 13.0 0.00 0.33 0.33 97 1010.7
20260506212723 47 295 8.0 9.0 0.00 0.33 0.33 97 1010.5
20260506212218 47 307 8.0 10.0 0.00 0.33 0.33 97 1010.5
20260506211713 47 315 5.0 8.0 0.00 0.33 0.33 97 1010.4
20260506211210 47 297 3.0 11.0 0.07 0.33 0.33 97 1010.3
20260506210707 47 284 5.0 11.0 0.07 0.33 0.33 97 1010.3
20260506210204 47 298 5.0 7.0 0.00 0.32 0.32 97 1010.1
20260506205702 47 277 4.0 7.0 0.00 0.32 0.32 97 1010.3
20260506205201 47 301 5.0 9.0 0.00 0.32 0.32 97 1010.4
20260506204659 47 318 6.0 13.0 0.00 0.32 0.32 97 1010.3
20260506204156 47 313 5.0 9.0 0.00 0.32 0.32 97 1010.3
20260506203654 47 327 7.0 10.0 0.00 0.32 0.32 97 1010.3
20260506203151 47 289 6.0 10.0 0.00 0.32 0.32 97 1010.1
20260506202649 47 288 6.0 13.0 0.00 0.32 0.32 97 1009.9
20260506202145 47 290 8.0 14.0 0.00 0.32 0.32 97 1009.8
20260506201642 47 305 8.0 11.0 0.05 0.32 0.32 97 1009.8
20260506201138 47 301 3.0 10.0 0.05 0.32 0.32 97 1009.8
20260506200635 47 301 7.0 8.0 0.00 0.31 0.31 97 1009.9
20260506200132 48 305 5.0 7.0 0.00 0.31 0.31 97 1009.8
20260506195628 48 313 9.0 11.0 0.00 0.31 0.31 97 1010.0
20260506195125 48 322 6.0 8.0 0.00 0.31 0.31 97 1010.0
20260506194622 48 282 5.0 8.0 0.00 0.31 0.31 97 1009.7
20260506194118 48 282 4.0 6.0 0.00 0.31 0.31 97 1009.7
20260506193616 48 270 5.0 7.0 0.00 0.31 0.31 97 1009.8
20260506193114 48 307 3.0 6.0 0.00 0.31 0.31 97 1009.5
20260506192610 48 282 3.0 6.0 0.00 0.31 0.31 97 1009.5
20260506192106 48 297 3.0 6.0 0.00 0.31 0.31 97 1009.5
20260506191603 48 286 4.0 9.0 0.00 0.31 0.31 97 1009.7
20260506191059 48 296 5.0 6.0 0.00 0.31 0.31 97 1009.6
20260506190556 48 329 7.0 8.0 0.00 0.31 0.31 97 1009.6
20260506190053 48 315 5.0 8.0 0.00 0.31 0.31 97 1009.5
20260506185550 48 293 7.0 8.0 0.00 0.31 0.31 97 1009.5
20260506185047 48 308 4.0 7.0 0.00 0.31 0.31 97 1009.4
20260506184544 48 297 8.0 9.0 0.00 0.31 0.31 97 1009.5
20260506184036 48 265 6.0 8.0 0.00 0.31 0.31 97 1009.6
20260506183532 48 311 6.0 8.0 0.00 0.31 0.31 97 1009.4
20260506183029 49 302 6.0 8.0 0.00 0.31 0.31 97 1009.6
20260506182526 49 317 3.0 5.0 0.00 0.31 0.31 97 1009.4
20260506182023 49 299 4.0 6.0 0.00 0.31 0.31 97 1009.4
20260506181521 49 316 5.0 6.0 0.00 0.31 0.31 97 1009.3
20260506181018 48 308 5.0 7.0 0.00 0.31 0.31 97 1009.2
20260506180514 48 305 3.0 6.0 0.00 0.31 0.31 97 1009.2
20260506180011 48 330 3.0 7.0 0.07 0.31 0.31 97 1009.2
20260506175508 48 317 2.0 3.0 0.07 0.31 0.31 97 1009.3
20260506175004 48 9 3.0 8.0 0.00 0.30 0.30 97 1009.4
20260506174502 48 3 5.0 6.0 0.00 0.30 0.30 97 1009.4
20260506173957 48 335 3.0 8.0 0.00 0.30 0.30 97 1009.5
20260506173455 48 290 5.0 8.0 0.00 0.30 0.30 97 1009.5
20260506172947 48 319 5.0 8.0 0.05 0.30 0.30 97 1009.2
20260506172444 48 327 5.0 8.0 0.05 0.30 0.30 97 1009.3
20260506171940 48 313 10.0 10.0 0.00 0.29 0.29 97 1009.4
20260506171438 48 298 9.0 11.0 0.07 0.29 0.29 97 1009.3
20260506170936 48 310 9.0 9.0 0.07 0.29 0.29 97 1009.6
20260506170431 49 345 6.0 9.0 0.05 0.28 0.28 97 1009.3
20260506165924 50 296 5.0 6.0 0.05 0.28 0.28 97 1009.6
20260506165422 51 33 3.0 6.0 0.07 0.27 0.27 97 1009.3
20260506164913 53 323 5.0 7.0 0.07 0.27 0.27 97 1009.4
20260506164409 53 338 3.0 6.0 0.05 0.26 0.26 97 1009.5
20260506163907 54 12 1.0 3.0 0.12 0.26 0.26 98 1009.2
20260506163401 54 338 3.0 5.0 0.19 0.25 0.25 97 1009.2
20260506162856 54 304 3.0 5.0 0.14 0.23 0.23 97 1009.5
20260506162355 54 320 3.0 5.0 0.07 0.22 0.22 97 1009.3
20260506161852 54 300 4.0 5.0 0.05 0.21 0.21 97 1009.5
20260506161350 54 323 0.0 1.0 0.05 0.21 0.21 97 1009.4
20260506160847 54 311 0.0 1.0 0.07 0.20 0.20 97 1009.2
20260506160344 54 324 0.0 0.0 0.07 0.20 0.20 97 1009.5
20260506155843 54 22 0.0 0.0 0.05 0.19 0.19 97 1009.3
20260506155339 53 351 0.0 2.0 0.07 0.18 0.18 97 1009.1
20260506153456 53 45 1.0 1.0 0.00 0.17 0.17 97 1009.6
20260506152953 53 40 1.0 1.0 0.00 0.17 0.17 97 1009.4
20260506152450 53 44 0.0 2.0 0.00 0.17 0.17 97 1009.1
20260506151948 53 8 2.0 3.0 0.00 0.17 0.17 97 1009.5
20260506151445 53 52 0.0 2.0 0.00 0.17 0.17 97 1009.5
20260506150943 53 69 0.0 5.0 0.05 0.17 0.17 97 1009.4
20260506150438 53 34 0.0 3.0 0.00 0.16 0.16 97 1009.7
20260506145936 53 112 2.0 3.0 0.00 0.16 0.16 97 1009.5
20260506145432 52 129 2.0 5.0 0.07 0.16 0.16 97 1009.5
20260506144930 52 27 1.0 2.0 0.12 0.16 0.16 97 1009.6
20260506144426 52 26 1.0 2.0 0.05 0.15 0.15 97 1009.7
20260506143925 52 346 0.0 1.0 0.07 0.14 0.14 97 1009.7
20260506143421 52 42 1.0 3.0 0.07 0.14 0.14 97 1009.6
20260506142920 52 71 3.0 5.0 0.00 0.13 0.13 97 1010.0
20260506142417 52 49 2.0 2.0 0.05 0.13 0.13 97 1009.8
20260506141915 52 76 2.0 2.0 0.12 0.13 0.13 97 1010.1
20260506141413 51 115 3.0 5.0 0.14 0.12 0.12 97 1010.2
20260506140911 51 97 3.0 3.0 0.07 0.11 0.11 97 1010.4
20260506140408 51 122 2.0 3.0 0.05 0.10 0.10 97 1010.4
20260506135905 51 112 1.0 3.0 0.07 0.09 0.09 97 1010.5
20260506135401 51 80 1.0 2.0 0.07 0.09 0.09 97 1010.5
20260506134858 51 102 0.0 0.0 0.00 0.08 0.08 97 1010.7
20260506134354 51 100 2.0 2.0 0.00 0.08 0.08 97 1010.5
20260506133851 51 100 1.0 2.0 0.00 0.08 0.08 97 1010.4
20260506133348 51 81 0.0 0.0 0.05 0.08 0.08 97 1010.4
20260506132844 51 139 2.0 3.0 0.05 0.08 0.08 96 1010.1
20260506132341 51 72 3.0 3.0 0.00 0.07 0.07 96 1010.0
20260506131840 51 100 1.0 3.0 0.00 0.07 0.07 96 1010.3
20260506131335 51 76 2.0 3.0 0.00 0.07 0.07 96 1010.1
20260506130833 51 112 2.0 3.0 0.00 0.07 0.07 96 1010.2
20260506130329 51 80 3.0 3.0 0.00 0.07 0.07 96 1010.2
20260506125827 51 89 2.0 5.0 0.00 0.07 0.07 96 1010.4
20260506125325 51 149 3.0 3.0 0.00 0.07 0.07 96 1010.3
20260506124824 51 109 2.0 2.0 0.00 0.07 0.07 96 1010.5
20260506124320 51 125 1.0 2.0 0.00 0.07 0.07 96 1010.3
20260506123818 51 99 2.0 2.0 0.00 0.07 0.07 96 1010.6
20260506123316 50 41 0.0 0.0 0.00 0.07 0.07 96 1010.6
20260506122813 50 11 0.0 0.0 0.00 0.07 0.07 96 1010.5
20260506122310 50 33 0.0 0.0 0.00 0.07 0.07 96 1010.5
20260506121808 50 56 1.0 1.0 0.00 0.07 0.07 96 1010.5
20260506121305 50 12 0.0 0.0 0.00 0.07 0.07 96 1010.5
20260506120802 50 12 0.0 0.0 0.00 0.07 0.07 96 1010.7
20260506120300 50 17 0.0 0.0 0.07 0.07 0.07 96 1010.6
20260506115757 50 8 0.0 0.0 0.00 0.06 0.06 96 1010.7
20260506115255 50 8 0.0 0.0 0.05 0.06 0.06 96 1011.0
20260506114753 50 357 0.0 0.0 0.05 0.06 0.06 96 1011.0
20260506114250 50 323 0.0 0.0 0.00 0.05 0.05 96 1011.3
20260506113748 50 7 0.0 0.0 0.07 0.05 0.05 96 1011.2
20260506113246 50 305 0.0 3.0 0.07 0.05 0.05 96 1011.1
20260506112742 50 2 0.0 0.0 0.00 0.04 0.04 96 1011.2
20260506112239 50 347 0.0 0.0 0.00 0.04 0.04 96 1011.2
20260506111736 50 310 0.0 0.0 0.00 0.04 0.04 96 1011.2
20260506111235 50 314 0.0 0.0 0.05 0.04 0.04 96 1011.2
20260506110732 50 334 0.0 0.0 0.00 0.03 0.03 96 1010.9
20260506110230 50 5 0.0 0.0 0.00 0.03 0.03 96 1010.9
20260506105726 50 330 0.0 0.0 0.00 0.03 0.03 96 1010.9
20260506105223 50 321 0.0 0.0 0.00 0.03 0.03 96 1011.0
20260506104721 50 347 0.0 0.0 0.00 0.03 0.03 96 1010.9
20260506104218 50 2 0.0 0.0 0.07 0.03 0.03 96 1010.8
20260506103715 50 294 1.0 2.0 0.07 0.03 0.03 96 1011.0
20260506103211 50 264 0.0 3.0 0.00 0.02 0.02 96 1010.8
20260506102710 50 8 0.0 0.0 0.00 0.02 0.02 96 1010.9
20260506102208 50 321 0.0 0.0 0.00 0.02 0.02 96 1010.9
20260506101704 50 327 0.0 0.0 0.00 0.02 0.02 95 1010.7
20260506101200 49 298 0.0 0.0 0.05 0.02 0.02 95 1011.1
20260506100659 49 342 0.0 0.0 0.05 0.02 0.02 95 1011.1
20260506100156 50 0 0.0 0.0 0.00 0.01 0.01 95 1010.8
20260506095655 50 338 0.0 0.0 0.00 0.01 0.01 95 1011.3
20260506095151 50 166 2.0 2.0 0.00 0.01 0.01 95 1010.8
20260506094649 50 139 1.0 2.0 0.07 0.01 0.01 95 1011.0
20260506094146 50 316 2.0 2.0 0.07 0.01 0.01 95 1011.0
20260506093645 50 317 3.0 3.0 0.00 0.00 0.00 95 1011.3
20260506093142 50 29 1.0 3.0 0.00 0.00 0.00 95 1010.9
20260506092639 50 340 0.0 2.0 0.00 0.00 0.00 94 1010.8
20260506092136 50 251 2.0 2.0 0.00 0.00 0.00 94 1010.9
20260506091634 50 310 0.0 0.0 0.00 0.00 0.00 94 1010.8
20260506091131 50 88 0.0 0.0 0.00 0.00 0.00 94 1010.8
20260506090630 50 220 0.0 0.0 0.00 0.00 0.00 94 1010.9
20260506090125 49 1 0.0 0.0 0.00 0.00 0.00 94 1010.7
20260506085622 50 28 0.0 0.0 0.00 0.00 0.00 94 1010.8
20260506085119 50 25 0.0 0.0 0.00 0.00 0.00 94 1010.8
20260506084615 50 14 0.0 0.0 0.00 0.00 0.00 94 1010.9
20260506084112 50 10 0.0 0.0 0.00 0.00 0.00 94 1010.9
20260506083609 50 332 0.0 0.0 0.00 0.00 0.00 94 1011.1
20260506083107 50 354 0.0 0.0 0.00 0.00 0.00 94 1011.4
20260506082603 50 122 1.0 2.0 0.00 0.00 0.00 94 1010.9
20260506082059 50 196 0.0 0.0 0.00 0.00 0.00 94 1010.9
20260506081557 50 335 0.0 0.0 0.00 0.00 0.00 93 1011.1
20260506081054 50 308 0.0 0.0 0.00 0.00 0.00 93 1011.6
20260506080552 50 314 0.0 0.0 0.00 0.00 0.00 93 1011.3
20260506073032 50 336 0.0 2.0 0.00 0.00 0.00 93 1011.8
20260506072529 50 316 2.0 3.0 0.00 0.00 0.00 93 1011.8
20260506072027 50 308 2.0 3.0 0.00 0.00 0.00 93 1011.9
20260506071525 50 326 2.0 5.0 0.00 0.00 0.00 93 1011.9
20260506071022 50 296 1.0 5.0 0.00 0.00 0.00 93 1012.0
20260506070519 51 324 1.0 3.0 0.00 0.00 0.00 93 1011.9
20260506062456 51 323 2.0 3.0 0.00 0.00 0.00 92 1012.2
20260506061953 51 301 2.0 2.0 0.00 0.00 0.00 92 1012.1
20260506061449 51 297 2.0 3.0 0.00 0.00 0.00 91 1011.8
20260506060947 51 298 2.0 2.0 0.00 0.00 0.00 91 1012.1
20260506060445 51 330 1.0 2.0 0.00 0.00 0.00 91 1012.0
20260506050914 53 297 1.0 3.0 0.00 0.00 0.00 89 1012.5
20260506050412 54 311 5.0 6.0 0.00 0.00 0.00 88 1012.4
20260506044902 54 330 2.0 5.0 0.00 0.00 0.00 87 1012.5
20260506044400 54 329 4.0 7.0 0.00 0.00 0.00 87 1012.7
20260506043856 54 306 3.0 5.0 0.00 0.00 0.00 86 1012.7
20260506043354 55 325 1.0 2.0 0.00 0.00 0.00 86 1012.6
20260506042852 55 323 2.0 5.0 0.00 0.00 0.00 86 1012.9
20260506042351 55 315 2.0 5.0 0.00 0.00 0.00 86 1012.7
20260506041849 54 2 1.0 1.0 0.00 0.00 0.00 87 1012.6
20260506041346 55 346 0.0 0.0 0.00 0.00 0.00 87 1012.7
20260506040843 54 305 1.0 2.0 0.00 0.00 0.00 87 1012.7
20260506040340 55 339 0.0 2.0 0.00 0.00 0.00 88 1012.9
20260506035836 55 321 2.0 2.0 0.00 0.10 0.10 87 1012.9
20260506035334 55 317 0.0 0.0 0.00 0.10 0.10 86 1013.2
20260506034831 55 297 1.0 1.0 0.00 0.10 0.10 86 1013.0
20260506034328 55 323 0.0 0.0 0.00 0.10 0.10 86 1013.1
20260506033825 55 314 0.0 0.0 0.00 0.10 0.10 86 1012.9
20260506033322 55 324 0.0 0.0 0.00 0.10 0.10 85 1012.9
20260506032819 55 306 0.0 1.0 0.00 0.10 0.10 85 1013.1
20260506032316 55 131 1.0 1.0 0.00 0.10 0.10 84 1012.9
20260506031812 55 293 0.0 1.0 0.00 0.10 0.10 84 1012.9
20260506031310 55 20 0.0 1.0 0.00 0.10 0.10 84 1012.7
20260506030807 55 16 0.0 3.0 0.00 0.10 0.10 84 1012.5
20260506030305 55 296 1.0 5.0 0.00 0.10 0.10 83 1012.6
20260506025802 55 299 4.0 7.0 0.00 0.10 0.10 83 1012.7
20260506025258 55 305 5.0 6.0 0.00 0.10 0.10 83 1012.6
20260506024755 55 301 8.0 9.0 0.00 0.10 0.10 83 1012.5
20260506024252 55 328 5.0 7.0 0.00 0.10 0.10 83 1012.7
20260506023748 56 307 5.0 9.0 0.00 0.10 0.10 82 1012.6
20260506023245 55 252 6.0 10.0 0.00 0.10 0.10 82 1012.5
20260506022742 55 317 7.0 11.0 0.00 0.10 0.10 83 1012.5
20260506022240 55 260 7.0 10.0 0.00 0.10 0.10 83 1012.5
20260506021738 55 310 7.0 9.0 0.00 0.10 0.10 82 1012.3
20260506021234 56 325 6.0 8.0 0.00 0.10 0.10 82 1012.6
20260506020731 56 271 5.0 9.0 0.00 0.10 0.10 82 1012.6
20260506020229 56 284 6.0 9.0 0.00 0.10 0.10 82 1012.6
20260506015726 56 261 3.0 3.0 0.00 0.10 0.10 81 1012.7
20260506015224 56 284 6.0 10.0 0.00 0.10 0.10 81 1012.7